www.pogodaiklimat.ru

Погода и климат >> Архив погоды >> Россия >> Приморский край >> Хороль


ПОГОДА в Хороле

  • Прогноз погоды в Хороле
  • Монитор погоды в Хороле

АРХИВ ПОГОДЫ в Хороле

Время (UTC), дата Ветер
(напр.,м/с)
 
Видим.   Явления Облачность Т
(С)
Тd
(С)
f
(%)
Тe
(С)
Тes
(С)
Комфортность P
(гПа)
Po
(гПа)
Тmin
(С)
Tmax
(С)
R
(мм)
R24
(мм)
S
(см)
09 19.04 С 3
{11}
50 км ясно +11.9 -17.6 11 +11 +12 1012.6 997.3 +13.6
12 19.04 С 1 н/о н/о +5.2 -13.7 24 +5 1015.7 1000.0
15 19.04 З 3 50 км ясно +4.1 -14.2 25 +2 +2 1015.7 1000.0
18 19.04 С 1 н/о н/о -0.1 -11.5 42 -1 1017.3 1001.3
21 19.04 Ю 2 50 км 3/0
[Ci fib]
-0.9 -9.7 51 -4 -4 1015.6 999.5 -2.6
00 20.04 ЮВ 2 н/о н/о +6.7 -14.2 21 +6 +6 1014.4 998.7
03 20.04 Ю 3 50 км 7 баллов +11.3 -10.2 21 +10 +14 1012.6 997.3
06 20.04 Ю 5 н/о н/о +15.6 -10.1 16 +15 1008.3 993.3
09 20.04 Ю 5-10
{11}
50 км 9/0
[Ci fib]
+12.6 -10.4 19 +11 +11 1005.8 990.7 +15.9
12 20.04 ЮЗ 7-13
{14}
н/о н/о +8.3 -1.9 49 +4 +4 1006.2 990.8
15 20.04 ЮЗ 3 50 км 10 баллов +6.8 +0.9 66 +4 +4 1008.8 993.3
18 20.04 З 3 н/о н/о +6.5 +1.4 70 +4 1010.2 994.7
21 20.04 З 4 50 км 9/0
[Ac trans Cc]
+7.7 -6.2 37 +5 +5 1011.3 995.7 +6.1
00 21.04 З 5 н/о н/о +11.8 -13.2 16 +10 +10 1012.4 997.1
03 21.04 СЗ 4 50 км 10 баллов +14.5 -18.0 9 +14 +14 1012.4 997.3
06 21.04 СЗ 5 н/о н/о +16.7 -17.7 8 +16 1009.7 994.7
09 21.04 СВ 2
{10}
20 км ясно +13.8 -13.2 14 +14 +15 1011.1 996.0 +17.1
12 21.04 С 1 н/о н/о +8.1 -11.8 23 +8 1014.2 998.7
15 21.04 З 1 20 км ясно +5.5 -11.6 28 +5 +5 1015.7 1000.0
18 21.04 З 2 н/о н/о +4.6 -12.8 27 +3 1017.0 1001.3
21 21.04 З 2 20 км ясно +3.5 -11.8 32 +2 +2 1017.8 1001.9 +3.2
00 22.04 СЗ 2 н/о н/о +11.5 -10.0 21 +11 +11 1018.6 1003.2
03 22.04 В 3 50 км 7 баллов +14.3 -12.8 14 +14 +18 1019.2 1004.0
06 22.04 Ю 3 н/о н/о +16.4 -13.1 12 +16 1016.4 1001.3
09 22.04 ЮВ 4 50 км 3/0
[Ci fib]
+16.5 -14.1 11 +16 +17 1013.7 998.7 +17.0
12 22.04 Ю 6
{11}
н/о н/о +13.1 -11.9 16 +11 +11 1013.1 997.9
15 22.04 Ю 7-12
{12}
20 км 10/10 600 м
[Sc]
+10.7 -13.7 17 +8 +8 1012.2 996.8
21 22.04 Ю 8-15
{16}
20 км {дождь} 10/10 200 м
[St]
+8.6 +7.1 90 +4 +4 1008.2 992.8 +6.8 0.4
00 23.04 Ю 7-15
{18}
н/о н/о +9.8 +7.4 85 +6 +6 1007.5 992.2
03 23.04 Ю 8-15
{18}
20 км 10/10 200 м
[Sc]
+11.7 +7.1 73 +8 +8 1006.8 991.6
06 23.04 ЮЗ 7 н/о н/о +13.1 +8.2 72 +11 1007.1 992.0
09 23.04 Ю 3
{14}
20 км 6/0
[Ac trans Ci fib]
+13.0 +7.9 71 +12 +12 1007.1 992.0 +15.5 0.3
12 23.04 ЮЗ 5
{11}
н/о н/о +9.7 +7.5 86 +6 +6 1007.5 992.2
15 23.04 ЮЗ 2 20 км 2 балла +9.1 +7.4 89 +7 +7 1010.0 994.7
18 23.04 Ю 1 н/о н/о +8.3 +7.2 93 +7 1011.4 996.0
21 23.04 З 1 20 км 10/10 600 м
[Sc]
+9.1 +7.0 87 +8 +8 1011.3 995.8 +8.0
00 24.04 СЗ 2 н/о н/о +9.5 +6.9 84 +8 +8 1012.0 996.6
03 24.04 СЗ 3 20 км 10 баллов +7.4 +1.5 66 +5 +5 1014.2 998.7
06 24.04 Ю 2 н/о н/о +7.8 -2.0 50 +6 1012.8 997.3
09 24.04 Ю 2 50 км 8/5 600 м
[Sc Ac trans Ci sp]
+8.2 +0.7 59 +7 +7 1011.4 996.0 +11.8 0.0
12 24.04 З 2 н/о н/о +4.5 -0.5 70 +2 1012.9 997.3
15 24.04 СЗ 4 20 км ясно +6.2 -11.9 26 +3 +3 1012.9 997.3
18 24.04 СЗ 3 н/о н/о +3.2 -9.1 40 0 1013.0 997.3
21 24.04 СЗ 2 50 км 8/0
[Ci sp]
+3.1 -7.3 46 +1 +1 1014.1 998.3 +1.8
00 25.04 С 3 н/о н/о +9.0 -4.8 37 +7 +7 1014.9 999.4
03 25.04 СВ 4 20 км 10 баллов +10.2 -3.1 39 +8 +8 1015.4 1000.0
06 25.04 СВ 4 н/о н/о +11.0 -2.8 38 +9 1014.0 998.7
09 25.04 СВ 4 50 км 8/0
[Ci fib]
+9.3 -1.7 46 +7 +7 1014.1 998.7 +11.1
12 25.04 С 2 н/о н/о +5.1 +0.9 74 +3 1017.0 1001.3
15 25.04 СЗ 3 20 км 6 баллов +4.0 -0.6 72 +1 +1 1017.0 1001.3
18 25.04 С 2 н/о н/о +3.6 +0.5 80 +1 1015.7 1000.0
21 25.04 СЗ 2 50 км 8/4 600 м
[Sc Ac trans Cc]
+1.1 -1.5 83 -2 -2 1017.0 1001.0 +0.9
00 26.04 СВ 3 н/о н/о +8.7 -0.4 53 +7 +7 1017.1 1001.6
03 26.04 С 4-10
{11}
50 км 3/3 600 м
[Sc]
+11.0 -4.6 33 +9 +17 1016.6 1001.2

 

Местоположение метеостанции Хороль (Приморский край, Россия): широта 44.43 долгота 132.00 высота над уровнем моря 127 м.

В архиве по умолчанию представлена погода в Хороле за последнюю неделю. Архивные данные за месяц целиком и за предыдущие месяцы, начиная с января 2011 года, Вы можете получить, выбрав интересующий диапазон дат из раскрывающегося списка и нажав кнопку "Ввод!".


*Определитесь, кто Вы:
робот инопланетянин человек

Внимание! Время в таблицах - всемирное. Для получения местного времени необходимо прибавить поправку, которая равна 10 ч.

Смотрите также архив погоды в соседних городах и на ближайших метеорологических станциях:

Погода в Астраханке (Приморский край, Россия) (32 км)
Погода в Пограничном (Приморский край, Россия) (56 км)
Погода в Тимирязевском (Приморский край, Россия) (62 км)
Погода в Спасск-Дальнем (Приморский край, Россия) (67 км)
Погода в Суйфэньхэ (Хэйлунцзян, Китай) (68 км)
Погода в Полтавке (Приморский край, Россия) (71 км)
Погода в Турьем Роге (Приморский край, Россия) (87 км)
Погода в Свиягино (Приморский край, Россия) (89 км)
Погода в Анучино (Приморский край, Россия) (95 км)
Погода в Многоудобном (Приморский край, Россия) (113 км)

Пояснения к столбцам:

Ветер - указаны скорость ветра в м/с - средняя за 10 мин, порывы в срок и между сроками (в фигурных скобках) и направление, откуда дует ветер: С - северный, СВ - северо-восточный, В - восточный, ЮВ - юго-восточный, Ю - южный, ЮЗ - юго-западный, З - западный, СЗ - северо-западный.
Видимость - горизонтальная дальность видимости в метрах или километрах. При видимости от 1 до 10 км при отсутствии осадков обычно наблюдается дымка, при ухудшении видимости до 1 км и менее - туман. В сухую погоду видимость может ухудшаться дымом, пылью или мглою.
Явления - указаны атмосферные явления, наблюдавшиеся в срок или в последний час перед сроком; фигурными скобками обозначены явления, наблюдавшиеся между сроками (за 1-3 часа до срока); квадратными скобками обозначены град или гололедные отложения с указанием их диаметра в мм.
Облачность - указаны через наклонную черту общая и нижняя облачность в баллах и высота нижней границы облаков в метрах; квадратными скобками обозначены формы облаков: Ci - перистые, Cs - перисто-слоистые, Cc - перисто-кучевые, Ac - высококучевые, As - высокослоистые, Sc - слоисто-кучевые, Ns - слоисто-дождевые, Cu - кучевые, Cb - кучево-дождевые. Подробнее классификацию облаков см. в Атласе облаков (PDF).
T - Температура воздуха - температура, измеренная на высоте 2 м над землей.
Td - Температура точки росы - температура, при понижении до которой содержащийся в воздухе водяной пар достигнет насыщения.
f - Относительная влажность воздуха - влажноcть воздуха, измеренная на высоте 2 м над землей.
Te - Эффективная температура - температура, которую ощущает одетый по сезону человек в тени. Характеристика душности погоды. При расчете учитывается влияние влажности воздуха и скорости ветра на теплоощущения человека.
Tes - Эффективная температура на солнце - температура, которую ощущает человек, с поправкой на солнечный нагрев. Характеристика знойности погоды. Зависит от высоты солнца над горизонтом, облачности и скорости ветра. Ночью, в пасмурную погоду, а также при ветре 12 м/с и более поправка равна нулю.
P - Атмосферное давление - приведенное к уровню моря атмосферное давление.
Po - Атмосферное давление - измеренное на уровне метеостанции атмосферное давление.
Tmin - Минимальная температура - минимум температуры воздуха на высоте 2 м над землей.
Tmax - Максимальная температура - максимум температуры воздуха на высоте 2 м над землей.
R - Количество осадков - Количество выпавших осадков за период времени, мм. При наведении курсора мыши на число - период времени, за который выпало указанное количество осадков.
R24 - Количество осадков - Количество выпавших осадков за 24 часа, мм.
S - Снежный покров - Высота снежного покрова, см. При наведении курсора мыши на число - состояние снежного покрова и степень покрытия местности в баллах.